When you browse on this site, cookies collect data to enhance your experience and personalize the content and advertising you see.
Visit our Privacy Policy to learn more. By continuing to use the site, you agree to this use of cookies and data.

Hourly Weather Ghazni

Today, 9 August, Sunday

Time Temperature Precipitation Wind Pressure Humidity
00:00 +24°C° 0 mm 1 mps 585 mmHg 55%
01:00 +24°C° 0 mm 1 mps 585 mmHg 54%
02:00 +24°C° 0 mm 1 mps 585 mmHg 54%
03:00 +23°C° 0 mm 1 mps 585 mmHg 56%
04:00 +21°C° 0 mm 0 mps 584 mmHg 57%
05:00 +21°C° 0 mm 0 mps 585 mmHg 59%
06:00 +22°C° 0 mm 0 mps 585 mmHg 56%
07:00 +24°C° 0 mm 1 mps 585 mmHg 53%
08:00 +25°C° 0 mm 1 mps 586 mmHg 50%
09:00 +26°C° 0 mm 1 mps 586 mmHg 46%
10:00 +28°C° 0 mm 2 mps 586 mmHg 41%
11:00 +29°C° 0 mm 2 mps 587 mmHg 36%
12:00 +30°C° 0 mm 2 mps 587 mmHg 33%
13:00 +31°C° 0 mm 3 mps 587 mmHg 30%
14:00 +33°C° 0 mm 3 mps 587 mmHg 27%
15:00 +33°C° 0 mm 4 mps 587 mmHg 28%
16:00 +33°C° 0 mm 4 mps 586 mmHg 28%
17:00 +33°C° 0 mm 4 mps 586 mmHg 28%
18:00 +32°C° 0 mm 4 mps 586 mmHg 30%
19:00 +30°C° 0 mm 4 mps 586 mmHg 31%
20:00 +29°C° 0 mm 4 mps 586 mmHg 33%
21:00 +28°C° 0 mm 4 mps 586 mmHg 35%
22:00 +27°C° 0 mm 3 mps 586 mmHg 38%
23:00 +26°C° 0 mm 3 mps 586 mmHg 40%

Tomorrow, 10 August, Monday

Time Temperature Precipitation Wind Pressure Humidity
00:00 +26°C° 0 mm 2 mps 586 mmHg 44%
01:00 +25°C° 0 mm 1 mps 585 mmHg 47%
02:00 +25°C° 0 mm 1 mps 585 mmHg 50%
03:00 +24°C° 0 mm 1 mps 585 mmHg 52%
04:00 +24°C° 0 mm 1 mps 585 mmHg 55%
05:00 +23°C° 0 mm 1 mps 584 mmHg 57%
06:00 +24°C° 0 mm 1 mps 585 mmHg 53%
07:00 +25°C° 0 mm 1 mps 585 mmHg 49%
08:00 +23°C° 0 mm 0 mps 586 mmHg 45%
09:00 +27°C° 0 mm 1 mps 586 mmHg 40%
10:00 +28°C° 0 mm 1 mps 587 mmHg 36%
11:00 +30°C° 0 mm 2 mps 587 mmHg 32%
12:00 +31°C° 0 mm 2 mps 587 mmHg 27%
13:00 +33°C° 0 mm 3 mps 587 mmHg 22%
14:00 +35°C° 0 mm 4 mps 587 mmHg 18%
15:00 +35°C° 0 mm 4 mps 587 mmHg 17%
16:00 +35°C° 0 mm 5 mps 587 mmHg 15%
17:00 +36°C° 0 mm 6 mps 587 mmHg 14%
18:00 +34°C° 0 mm 6 mps 587 mmHg 17%
19:00 +33°C° 0 mm 6 mps 587 mmHg 21%
20:00 +32°C° 0 mm 6 mps 587 mmHg 24%
21:00 +30°C° 0 mm 6 mps 587 mmHg 33%
22:00 +28°C° 0 mm 5 mps 586 mmHg 43%
23:00 +27°C° 0 mm 5 mps 586 mmHg 53%

Day after tomorrow, 11 August, Tuesday

Time Temperature Precipitation Wind Pressure Humidity
00:00 +27°C° 0.2 mm 4 mps 586 mmHg 55%
01:00 +26°C° 0.2 mm 3 mps 586 mmHg 58%
02:00 +26°C° 0.2 mm 2 mps 586 mmHg 61%
03:00 +25°C° 0 mm 1 mps 586 mmHg 63%
04:00 +25°C° 0 mm 1 mps 585 mmHg 64%
05:00 +24°C° 0 mm 1 mps 585 mmHg 65%
06:00 +25°C° 0 mm 1 mps 585 mmHg 61%
07:00 +25°C° 0 mm 1 mps 586 mmHg 57%
08:00 +26°C° 0 mm 1 mps 586 mmHg 53%
09:00 +27°C° 0 mm 1 mps 586 mmHg 46%
10:00 +29°C° 0 mm 1 mps 587 mmHg 38%
11:00 +30°C° 0 mm 1 mps 587 mmHg 31%
12:00 +31°C° 0 mm 2 mps 587 mmHg 27%
13:00 +34°C° 0 mm 2 mps 587 mmHg 23%
14:00 +35°C° 0 mm 3 mps 587 mmHg 19%
15:00 +35°C° 0 mm 4 mps 587 mmHg 19%
16:00 +36°C° 0 mm 4 mps 587 mmHg 18%
17:00 +36°C° 0 mm 4 mps 587 mmHg 17%
18:00 +35°C° 0 mm 4 mps 587 mmHg 18%
19:00 +34°C° 0 mm 4 mps 587 mmHg 18%
20:00 +33°C° 0 mm 4 mps 587 mmHg 19%
21:00 +32°C° 0 mm 4 mps 587 mmHg 25%
22:00 +30°C° 0 mm 4 mps 587 mmHg 32%
23:00 +28°C° 0 mm 5 mps 587 mmHg 38%

12 August, Wednesday

Time Temperature Precipitation Wind Pressure Humidity
00:00 +28°C° 0.1 mm 3 mps 586 mmHg 43%
01:00 +27°C° 0.1 mm 2 mps 586 mmHg 49%
02:00 +26°C° 0.1 mm 1 mps 586 mmHg 55%
03:00 +26°C° 0.1 mm 1 mps 586 mmHg 56%
04:00 +25°C° 0.1 mm 1 mps 585 mmHg 56%
05:00 +25°C° 0.1 mm 1 mps 585 mmHg 57%
06:00 +25°C° 0 mm 1 mps 586 mmHg 52%
07:00 +26°C° 0 mm 1 mps 586 mmHg 47%
08:00 +26°C° 0 mm 1 mps 586 mmHg 41%
09:00 +28°C° 0 mm 1 mps 587 mmHg 37%
10:00 +29°C° 0 mm 1 mps 587 mmHg 32%
11:00 +31°C° 0 mm 1 mps 587 mmHg 27%
12:00 +32°C° 0 mm 2 mps 587 mmHg 23%
13:00 +34°C° 0 mm 3 mps 587 mmHg 19%
14:00 +36°C° 0 mm 3 mps 588 mmHg 16%
15:00 +36°C° 0 mm 4 mps 587 mmHg 15%
16:00 +36°C° 0 mm 5 mps 587 mmHg 14%
17:00 +37°C° 0 mm 5 mps 587 mmHg 13%
18:00 +35°C° 0 mm 5 mps 587 mmHg 13%
19:00 +34°C° 0 mm 5 mps 587 mmHg 12%
20:00 +33°C° 0 mm 5 mps 587 mmHg 12%
21:00 +32°C° 0 mm 5 mps 587 mmHg 17%
22:00 +29°C° 0 mm 5 mps 587 mmHg 21%
23:00 +28°C° 0 mm 4 mps 587 mmHg 25%

13 August, Thursday

Time Temperature Precipitation Wind Pressure Humidity
00:00 +28°C° 0 mm 3 mps 587 mmHg 32%
01:00 +27°C° 0 mm 2 mps 586 mmHg 38%
02:00 +26°C° 0 mm 1 mps 586 mmHg 45%
03:00 +25°C° 0 mm 1 mps 586 mmHg 42%
04:00 +25°C° 0 mm 1 mps 586 mmHg 40%
05:00 +25°C° 0 mm 2 mps 585 mmHg 38%
06:00 +25°C° 0 mm 2 mps 586 mmHg 32%
07:00 +26°C° 0 mm 2 mps 586 mmHg 26%
08:00 +27°C° 0 mm 2 mps 587 mmHg 20%
09:00 +28°C° 0 mm 2 mps 587 mmHg 19%
10:00 +29°C° 0 mm 2 mps 587 mmHg 17%
11:00 +31°C° 0 mm 2 mps 588 mmHg 16%
12:00 +32°C° 0 mm 2 mps 588 mmHg 14%
13:00 +34°C° 0 mm 2 mps 588 mmHg 11%
14:00 +36°C° 0 mm 2 mps 588 mmHg 8%
15:00 +36°C° 0 mm 2 mps 588 mmHg 8%
16:00 +36°C° 0 mm 2 mps 587 mmHg 7%
17:00 +37°C° 0 mm 2 mps 587 mmHg 7%
18:00 +35°C° 0 mm 2 mps 587 mmHg 7%
19:00 +33°C° 0 mm 3 mps 587 mmHg 8%
20:00 +31°C° 0 mm 3 mps 587 mmHg 9%
21:00 +30°C° 0 mm 3 mps 587 mmHg 10%
22:00 +28°C° 0 mm 3 mps 587 mmHg 12%
23:00 +27°C° 0 mm 3 mps 587 mmHg 14%

14 August, Friday

Time Temperature Precipitation Wind Pressure Humidity
00:00 +26°C° 0 mm 3 mps 586 mmHg 15%
01:00 +25°C° 0 mm 2 mps 586 mmHg 16%
02:00 +25°C° 0 mm 2 mps 585 mmHg 18%
03:00 +24°C° 0 mm 2 mps 585 mmHg 17%
04:00 +23°C° 0 mm 2 mps 585 mmHg 17%
05:00 +21°C° 0 mm 2 mps 585 mmHg 16%
06:00 +23°C° 0 mm 2 mps 585 mmHg 15%
07:00 +24°C° 0 mm 3 mps 586 mmHg 14%
08:00 +25°C° 0 mm 3 mps 586 mmHg 12%
09:00 +26°C° 0 mm 2 mps 586 mmHg 11%
10:00 +28°C° 0 mm 2 mps 587 mmHg 10%
11:00 +29°C° 0 mm 2 mps 587 mmHg 9%
12:00 +31°C° 0 mm 2 mps 587 mmHg 8%
13:00 +32°C° 0 mm 2 mps 587 mmHg 8%
14:00 +34°C° 0 mm 2 mps 587 mmHg 7%
15:00 +34°C° 0 mm 2 mps 587 mmHg 7%
16:00 +34°C° 0 mm 2 mps 586 mmHg 7%
17:00 +35°C° 0 mm 3 mps 586 mmHg 7%
18:00 +32°C° 0 mm 2 mps 586 mmHg 9%
19:00 +31°C° 0 mm 1 mps 586 mmHg 10%
20:00 +30°C° 0 mm 1 mps 586 mmHg 12%
21:00 +29°C° 0 mm 1 mps 586 mmHg 16%
22:00 +28°C° 0 mm 2 mps 586 mmHg 20%
23:00 +27°C° 0 mm 2 mps 586 mmHg 24%
Show more